Year,Month,Day,Hour,Minute,Value (Times are PST for temperature in C)
2011,02,04,00,00,7.30
2011,02,04,00,01,7.30
2011,02,04,00,02,7.30
2011,02,04,00,03,7.30
2011,02,04,00,04,7.30
2011,02,04,00,05,7.30
2011,02,04,00,06,7.30
2011,02,04,00,07,7.30
2011,02,04,00,08,7.30
2011,02,04,00,09,7.30
2011,02,04,00,10,7.30
2011,02,04,00,11,7.30
2011,02,04,00,12,7.30
2011,02,04,00,13,7.30
2011,02,04,00,14,7.30
2011,02,04,00,15,7.30
2011,02,04,00,16,7.30
2011,02,04,00,17,7.40
2011,02,04,00,18,7.40
2011,02,04,00,19,7.40
2011,02,04,00,20,7.40
2011,02,04,00,21,7.40
2011,02,04,00,22,7.40
2011,02,04,00,23,7.40
2011,02,04,00,24,7.40
2011,02,04,00,25,7.40
2011,02,04,00,26,7.40
2011,02,04,00,27,7.40
2011,02,04,00,28,7.40
2011,02,04,00,29,7.40
2011,02,04,00,30,7.50
2011,02,04,00,31,7.50
2011,02,04,00,32,7.40
2011,02,04,00,33,7.40
2011,02,04,00,34,7.40
2011,02,04,00,35,7.40
2011,02,04,00,36,7.40
2011,02,04,00,37,7.40
2011,02,04,00,38,7.40
2011,02,04,00,39,7.40
2011,02,04,00,40,7.40
2011,02,04,00,41,7.40
2011,02,04,00,42,7.40
2011,02,04,00,43,7.40
2011,02,04,00,44,7.40
2011,02,04,00,45,7.40
2011,02,04,00,46,7.40
2011,02,04,00,47,7.40
2011,02,04,00,48,7.40
2011,02,04,00,49,7.40
2011,02,04,00,50,7.40
2011,02,04,00,51,7.40
2011,02,04,00,52,7.40
2011,02,04,00,53,7.40
2011,02,04,00,54,7.40
2011,02,04,00,55,7.40
2011,02,04,00,56,7.40
2011,02,04,00,57,7.40
2011,02,04,00,58,7.40
2011,02,04,00,59,7.40
2011,02,04,01,00,7.40
2011,02,04,01,01,7.40
2011,02,04,01,02,7.40
2011,02,04,01,03,7.40
2011,02,04,01,04,7.40
2011,02,04,01,05,7.40
2011,02,04,01,06,7.40
2011,02,04,01,07,7.40
2011,02,04,01,08,7.40
2011,02,04,01,09,7.40
2011,02,04,01,10,7.40
2011,02,04,01,11,7.40
2011,02,04,01,12,7.40
2011,02,04,01,13,7.40
2011,02,04,01,14,7.50
2011,02,04,01,15,7.50
2011,02,04,01,16,7.50
2011,02,04,01,17,7.60
2011,02,04,01,18,7.60
2011,02,04,01,19,7.50
2011,02,04,01,20,7.50
2011,02,04,01,21,7.50
2011,02,04,01,22,7.50
2011,02,04,01,23,7.60
2011,02,04,01,24,7.50
2011,02,04,01,25,7.50
2011,02,04,01,26,7.50
2011,02,04,01,27,7.50
2011,02,04,01,28,7.60
2011,02,04,01,29,7.60
2011,02,04,01,30,7.60
2011,02,04,01,31,7.60
2011,02,04,01,32,7.60
2011,02,04,01,33,7.60
2011,02,04,01,34,7.60
2011,02,04,01,35,7.60
2011,02,04,01,36,7.60
2011,02,04,01,37,7.60
2011,02,04,01,38,7.60
2011,02,04,01,39,7.60
2011,02,04,01,40,7.60
2011,02,04,01,41,7.60
2011,02,04,01,42,7.60
2011,02,04,01,43,7.60
2011,02,04,01,44,7.60
2011,02,04,01,45,7.60
2011,02,04,01,46,7.60
2011,02,04,01,47,7.60
2011,02,04,01,48,7.60
2011,02,04,01,49,7.50
2011,02,04,01,50,7.50
2011,02,04,01,51,7.50
2011,02,04,01,52,7.50
2011,02,04,01,53,7.50
2011,02,04,01,54,7.50
2011,02,04,01,55,7.50
2011,02,04,01,56,7.50
2011,02,04,01,57,7.50
2011,02,04,01,58,7.50
2011,02,04,01,59,7.50
2011,02,04,02,00,7.50
2011,02,04,02,01,7.50
2011,02,04,02,02,7.50
2011,02,04,02,03,7.50
2011,02,04,02,04,7.40
2011,02,04,02,05,7.40
2011,02,04,02,06,7.50
2011,02,04,02,07,7.50
2011,02,04,02,08,7.50
2011,02,04,02,09,7.50
2011,02,04,02,10,7.50
2011,02,04,02,11,7.50
2011,02,04,02,12,7.60
2011,02,04,02,13,7.60
2011,02,04,02,14,7.60
2011,02,04,02,15,7.60
2011,02,04,02,16,7.60
2011,02,04,02,17,7.60
2011,02,04,02,18,7.70
2011,02,04,02,19,7.70
2011,02,04,02,20,7.70
2011,02,04,02,21,7.70
2011,02,04,02,22,7.70
2011,02,04,02,23,7.70
2011,02,04,02,24,7.70
2011,02,04,02,25,7.70
2011,02,04,02,26,7.70
2011,02,04,02,27,7.70
2011,02,04,02,28,7.70
2011,02,04,02,29,7.70
2011,02,04,02,30,7.70
2011,02,04,02,31,7.80
2011,02,04,02,32,7.80
2011,02,04,02,33,7.80
2011,02,04,02,34,7.80
2011,02,04,02,35,7.80
2011,02,04,02,36,7.80
2011,02,04,02,37,7.80
2011,02,04,02,38,7.80
2011,02,04,02,39,7.80
2011,02,04,02,40,7.80
2011,02,04,02,41,7.80
2011,02,04,02,42,7.80
2011,02,04,02,43,7.80
2011,02,04,02,44,7.80
2011,02,04,02,45,7.80
2011,02,04,02,46,7.80
2011,02,04,02,47,7.70
2011,02,04,02,48,7.70
2011,02,04,02,49,7.70
2011,02,04,02,50,7.80
2011,02,04,02,51,7.80
2011,02,04,02,52,7.80
2011,02,04,02,53,7.80
2011,02,04,02,54,7.80
2011,02,04,02,55,7.80
2011,02,04,02,56,7.80
2011,02,04,02,57,7.80
2011,02,04,02,58,7.90
2011,02,04,02,59,7.80
2011,02,04,03,00,7.80
2011,02,04,03,01,7.80
2011,02,04,03,02,7.80
2011,02,04,03,03,7.80
2011,02,04,03,04,7.80
2011,02,04,03,05,7.80
2011,02,04,03,06,7.80
2011,02,04,03,07,7.80
2011,02,04,03,08,7.80
2011,02,04,03,09,7.80
2011,02,04,03,10,7.90
2011,02,04,03,11,7.90
2011,02,04,03,12,7.90
2011,02,04,03,13,7.90
2011,02,04,03,14,7.90
2011,02,04,03,15,7.90
2011,02,04,03,16,7.90
2011,02,04,03,17,7.90
2011,02,04,03,18,7.90
2011,02,04,03,19,7.90
2011,02,04,03,20,7.90
2011,02,04,03,21,7.90
2011,02,04,03,22,7.90
2011,02,04,03,23,7.90
2011,02,04,03,24,7.90
2011,02,04,03,25,7.90
2011,02,04,03,26,7.90
2011,02,04,03,27,7.90
2011,02,04,03,28,7.90
2011,02,04,03,29,7.90
2011,02,04,03,30,7.90
2011,02,04,03,31,7.90
2011,02,04,03,32,8.00
2011,02,04,03,33,8.00
2011,02,04,03,34,8.10
2011,02,04,03,35,8.10
2011,02,04,03,36,8.10
2011,02,04,03,37,8.10
2011,02,04,03,38,8.20
2011,02,04,03,39,8.20
2011,02,04,03,40,8.20
2011,02,04,03,41,8.20
2011,02,04,03,42,8.20
2011,02,04,03,43,8.20
2011,02,04,03,44,8.20
2011,02,04,03,45,8.20
2011,02,04,03,46,8.20
2011,02,04,03,47,8.20
2011,02,04,03,48,8.20
2011,02,04,03,49,8.20
2011,02,04,03,50,8.20
2011,02,04,03,51,8.20
2011,02,04,03,52,8.20
2011,02,04,03,53,8.20
2011,02,04,03,54,8.20
2011,02,04,03,55,8.20
2011,02,04,03,56,8.30
2011,02,04,03,57,8.30
2011,02,04,03,58,8.30
2011,02,04,03,59,8.30
2011,02,04,04,00,8.30
2011,02,04,04,01,8.30
2011,02,04,04,02,8.30
2011,02,04,04,03,8.30
2011,02,04,04,04,8.30
2011,02,04,04,05,8.30
2011,02,04,04,06,8.30
2011,02,04,04,07,8.30
2011,02,04,04,08,8.30
2011,02,04,04,09,8.30
2011,02,04,04,10,8.30
2011,02,04,04,11,8.30
2011,02,04,04,12,8.30
2011,02,04,04,13,8.30
2011,02,04,04,14,8.30
2011,02,04,04,15,8.30
2011,02,04,04,16,8.30
2011,02,04,04,17,8.30
2011,02,04,04,18,8.30
2011,02,04,04,19,8.30
2011,02,04,04,20,8.30
2011,02,04,04,21,8.30
2011,02,04,04,22,8.30
2011,02,04,04,23,8.30
2011,02,04,04,24,8.20
2011,02,04,04,25,8.20
2011,02,04,04,26,8.20
2011,02,04,04,27,8.20
2011,02,04,04,28,8.20
2011,02,04,04,29,8.20
2011,02,04,04,30,8.20
2011,02,04,04,31,8.10
2011,02,04,04,32,8.10
2011,02,04,04,33,8.10
2011,02,04,04,34,8.10
2011,02,04,04,35,8.10
2011,02,04,04,36,8.10
2011,02,04,04,37,8.10
2011,02,04,04,38,8.10
2011,02,04,04,39,8.10
2011,02,04,04,40,8.10
2011,02,04,04,41,8.10
2011,02,04,04,42,8.10
2011,02,04,04,43,8.10
2011,02,04,04,44,8.10
2011,02,04,04,45,8.10
2011,02,04,04,46,8.10
2011,02,04,04,47,8.20
2011,02,04,04,48,8.20
2011,02,04,04,49,8.20
2011,02,04,04,50,8.30
2011,02,04,04,51,8.30
2011,02,04,04,52,8.30
2011,02,04,04,53,8.30
2011,02,04,04,54,8.40
2011,02,04,04,55,8.40
2011,02,04,04,56,8.40
2011,02,04,04,57,8.50
2011,02,04,04,58,8.50
2011,02,04,04,59,8.60
2011,02,04,05,00,8.60
2011,02,04,05,01,8.60
2011,02,04,05,02,8.70
2011,02,04,05,03,8.70
2011,02,04,05,04,8.70
2011,02,04,05,05,8.80
2011,02,04,05,06,8.80
2011,02,04,05,07,8.80
2011,02,04,05,08,8.90
2011,02,04,05,09,8.90
2011,02,04,05,10,9.00
2011,02,04,05,11,9.00
2011,02,04,05,12,9.00
2011,02,04,05,13,9.00
2011,02,04,05,14,9.10
2011,02,04,05,15,9.10
2011,02,04,05,16,9.10
2011,02,04,05,17,9.10
2011,02,04,05,18,9.10
2011,02,04,05,19,9.10
2011,02,04,05,20,9.10
2011,02,04,05,21,9.10
2011,02,04,05,22,9.00
2011,02,04,05,23,9.00
2011,02,04,05,24,9.00
2011,02,04,05,25,9.00
2011,02,04,05,26,8.90
2011,02,04,05,27,8.90
2011,02,04,05,28,8.90
2011,02,04,05,29,8.90
2011,02,04,05,30,8.80
2011,02,04,05,31,8.80
2011,02,04,05,32,8.80
2011,02,04,05,33,8.80
2011,02,04,05,34,8.80
2011,02,04,05,35,8.80
2011,02,04,05,36,8.70
2011,02,04,05,37,8.70
2011,02,04,05,38,8.70
2011,02,04,05,39,8.70
2011,02,04,05,40,8.60
2011,02,04,05,41,8.60
2011,02,04,05,42,8.60
2011,02,04,05,43,8.60
2011,02,04,05,44,8.60
2011,02,04,05,45,8.60
2011,02,04,05,46,8.60
2011,02,04,05,47,8.60
2011,02,04,05,48,8.60
2011,02,04,05,49,8.50
2011,02,04,05,50,8.40
2011,02,04,05,51,8.40
2011,02,04,05,52,8.40
2011,02,04,05,53,8.40
2011,02,04,05,54,8.30
2011,02,04,05,55,8.30
2011,02,04,05,56,8.30
2011,02,04,05,57,8.30
2011,02,04,05,58,8.30
2011,02,04,05,59,8.30
2011,02,04,06,00,8.20
2011,02,04,06,01,8.20
2011,02,04,06,02,8.20
2011,02,04,06,03,8.20
2011,02,04,06,04,8.20
2011,02,04,06,05,8.20
2011,02,04,06,06,8.10
2011,02,04,06,07,8.20
2011,02,04,06,08,8.10
2011,02,04,06,09,8.10
2011,02,04,06,10,8.20
2011,02,04,06,11,8.10
2011,02,04,06,12,8.10
2011,02,04,06,13,8.10
2011,02,04,06,14,8.10
2011,02,04,06,15,8.10
2011,02,04,06,16,8.10
2011,02,04,06,17,8.10
2011,02,04,06,18,8.10
2011,02,04,06,19,8.10
2011,02,04,06,20,8.10
2011,02,04,06,21,8.10
2011,02,04,06,22,8.10
2011,02,04,06,23,8.10
2011,02,04,06,24,8.10
2011,02,04,06,25,8.00
2011,02,04,06,26,8.00
2011,02,04,06,27,8.00
2011,02,04,06,28,8.00
2011,02,04,06,29,8.10
2011,02,04,06,30,8.00
2011,02,04,06,31,8.00
2011,02,04,06,32,8.10
2011,02,04,06,33,8.10
2011,02,04,06,34,8.10
2011,02,04,06,35,8.00
2011,02,04,06,36,8.00
2011,02,04,06,37,8.00
2011,02,04,06,38,8.00
2011,02,04,06,39,8.00
2011,02,04,06,40,8.00
2011,02,04,06,41,8.00
2011,02,04,06,42,8.00
2011,02,04,06,43,8.00
2011,02,04,06,44,8.00
2011,02,04,06,45,8.00
2011,02,04,06,46,8.00
2011,02,04,06,47,8.00
2011,02,04,06,48,8.00
2011,02,04,06,49,8.00
2011,02,04,06,50,8.00
2011,02,04,06,51,8.00
2011,02,04,06,52,8.00
2011,02,04,06,53,8.00
2011,02,04,06,54,8.00
2011,02,04,06,55,8.00
2011,02,04,06,56,8.00
2011,02,04,06,57,7.90
2011,02,04,06,58,7.90
2011,02,04,06,59,7.90
2011,02,04,07,00,7.90
2011,02,04,07,01,7.90
2011,02,04,07,02,7.90
2011,02,04,07,03,7.90
2011,02,04,07,04,7.90
2011,02,04,07,05,7.90
2011,02,04,07,06,7.90
2011,02,04,07,07,7.90
2011,02,04,07,08,7.90
2011,02,04,07,09,7.90
2011,02,04,07,10,7.90
2011,02,04,07,11,7.90
2011,02,04,07,12,7.90
2011,02,04,07,13,7.90
2011,02,04,07,14,7.90
2011,02,04,07,15,7.90
2011,02,04,07,16,7.90
2011,02,04,07,17,7.90
2011,02,04,07,18,7.90
2011,02,04,07,19,7.90
2011,02,04,07,20,7.90
2011,02,04,07,21,7.90
2011,02,04,07,22,7.90
2011,02,04,07,23,7.90
2011,02,04,07,24,7.90
2011,02,04,07,25,7.90
2011,02,04,07,26,7.90
2011,02,04,07,27,7.90
2011,02,04,07,28,7.90
2011,02,04,07,29,7.90
2011,02,04,07,30,7.90
2011,02,04,07,31,7.90
2011,02,04,07,32,7.90
2011,02,04,07,33,7.90
2011,02,04,07,34,7.90
2011,02,04,07,35,8.00
2011,02,04,07,36,8.00
2011,02,04,07,37,8.00
2011,02,04,07,38,8.00
2011,02,04,07,39,8.00
2011,02,04,07,40,8.00
2011,02,04,07,41,8.00
2011,02,04,07,42,8.00
2011,02,04,07,43,8.00
2011,02,04,07,44,8.10
2011,02,04,07,45,8.10
2011,02,04,07,46,8.10
2011,02,04,07,47,8.10
2011,02,04,07,48,8.10
2011,02,04,07,49,8.10
2011,02,04,07,50,8.10
2011,02,04,07,51,8.10
2011,02,04,07,52,8.10
2011,02,04,07,53,8.10
2011,02,04,07,54,8.20
2011,02,04,07,55,8.20
2011,02,04,07,56,8.20
2011,02,04,07,57,8.20
2011,02,04,07,58,8.20
2011,02,04,07,59,8.20
2011,02,04,08,00,8.10
2011,02,04,08,01,8.10
2011,02,04,08,02,8.10
2011,02,04,08,03,8.10
2011,02,04,08,04,8.10
2011,02,04,08,05,8.10
2011,02,04,08,06,8.10
2011,02,04,08,07,8.10
2011,02,04,08,08,8.10
2011,02,04,08,09,8.10
2011,02,04,08,10,8.10
2011,02,04,09,34,8.70
2011,02,04,09,35,8.70
2011,02,04,09,36,8.70
2011,02,04,09,37,8.70
2011,02,04,09,38,8.70
2011,02,04,09,39,8.70
2011,02,04,09,40,8.70
2011,02,04,09,41,8.70
2011,02,04,09,42,8.70
2011,02,04,09,43,8.70
2011,02,04,09,44,8.80
2011,02,04,09,45,8.80
2011,02,04,09,46,8.80
2011,02,04,09,47,8.80
2011,02,04,09,48,8.80
2011,02,04,09,49,8.80
2011,02,04,09,50,8.80
2011,02,04,09,51,8.80
2011,02,04,09,52,8.80
2011,02,04,09,53,8.80
2011,02,04,09,54,8.80
2011,02,04,09,55,8.80
2011,02,04,09,56,8.80
2011,02,04,09,57,8.80
2011,02,04,09,58,8.80
2011,02,04,09,59,8.70
2011,02,04,10,00,8.70
2011,02,04,10,01,8.70
2011,02,04,10,02,8.70
2011,02,04,10,03,8.70
2011,02,04,10,04,8.70
2011,02,04,10,05,8.60
2011,02,04,10,06,8.60
2011,02,04,10,07,8.60
2011,02,04,10,08,8.60
2011,02,04,10,09,8.60
2011,02,04,10,10,8.60
2011,02,04,10,11,8.60
2011,02,04,10,12,8.50
2011,02,04,10,13,8.50
2011,02,04,10,14,8.50
2011,02,04,10,15,8.50
2011,02,04,10,16,8.50
2011,02,04,10,17,8.50
2011,02,04,10,18,8.50
2011,02,04,10,19,8.50
2011,02,04,10,20,8.60
2011,02,04,10,21,8.60
2011,02,04,10,22,8.60
2011,02,04,10,23,8.60
2011,02,04,10,24,8.60
2011,02,04,10,25,8.60
2011,02,04,10,26,8.60
2011,02,04,10,27,8.60
2011,02,04,10,28,8.60
2011,02,04,10,29,8.60
2011,02,04,10,30,8.60
2011,02,04,10,31,8.70
2011,02,04,10,32,8.70
2011,02,04,10,33,8.70
2011,02,04,10,34,8.70
2011,02,04,10,35,8.70
2011,02,04,10,36,8.80
2011,02,04,10,37,8.80
2011,02,04,10,38,8.80
2011,02,04,10,39,8.80
2011,02,04,10,40,8.80
2011,02,04,10,41,8.80
2011,02,04,10,42,8.90
2011,02,04,10,43,8.90
2011,02,04,10,44,8.90
2011,02,04,10,45,8.90
2011,02,04,10,46,8.90
2011,02,04,10,47,9.00
2011,02,04,10,48,9.00
2011,02,04,10,49,9.10
2011,02,04,10,50,9.10
2011,02,04,10,51,9.20
2011,02,04,10,52,9.20
2011,02,04,10,53,9.20
2011,02,04,10,54,9.30
2011,02,04,10,55,9.30
2011,02,04,10,56,9.40
2011,02,04,10,57,9.40
2011,02,04,10,58,9.40
2011,02,04,10,59,9.50
2011,02,04,11,00,9.60
2011,02,04,11,01,9.60
2011,02,04,11,02,9.60
2011,02,04,11,03,9.60
2011,02,04,11,04,9.70
2011,02,04,11,05,9.70
2011,02,04,11,06,9.70
2011,02,04,11,07,9.70
2011,02,04,11,08,9.70
2011,02,04,11,09,9.70
2011,02,04,11,10,9.70
2011,02,04,11,11,9.80
2011,02,04,11,12,9.80
2011,02,04,11,13,9.80
2011,02,04,11,14,9.80
2011,02,04,11,15,9.80
2011,02,04,11,16,9.80
2011,02,04,11,17,9.80
2011,02,04,11,18,9.80
2011,02,04,11,19,9.80
2011,02,04,11,20,9.80
2011,02,04,11,21,9.70
2011,02,04,11,22,9.70
2011,02,04,11,23,9.80
2011,02,04,11,24,9.80
2011,02,04,11,25,9.80
2011,02,04,11,26,9.80
2011,02,04,11,27,9.80
2011,02,04,11,28,9.90
2011,02,04,11,29,9.90
2011,02,04,11,30,9.90
2011,02,04,11,31,10.00
2011,02,04,11,32,10.00
2011,02,04,11,33,10.00
2011,02,04,11,34,10.10
2011,02,04,11,35,10.10
2011,02,04,11,36,10.10
2011,02,04,11,37,10.10
2011,02,04,11,38,10.20
2011,02,04,11,39,10.20
2011,02,04,11,40,10.20
2011,02,04,11,41,10.20
2011,02,04,11,42,10.20
2011,02,04,11,43,10.20
2011,02,04,11,44,10.20
2011,02,04,11,45,10.30
2011,02,04,11,46,10.30
2011,02,04,11,47,10.30
2011,02,04,11,48,10.30
2011,02,04,11,49,10.40
2011,02,04,11,50,10.40
2011,02,04,11,51,10.40
2011,02,04,11,52,10.50
2011,02,04,11,53,10.50
2011,02,04,11,54,10.60
2011,02,04,11,55,10.60
2011,02,04,11,56,10.60
2011,02,04,11,57,10.60
2011,02,04,11,58,10.60
2011,02,04,11,59,10.60
2011,02,04,12,00,10.60
2011,02,04,12,01,10.60
2011,02,04,12,02,10.60
2011,02,04,12,03,10.60
2011,02,04,12,04,10.60
2011,02,04,12,05,10.60
2011,02,04,12,06,10.60
2011,02,04,12,07,10.60
2011,02,04,12,08,10.60
2011,02,04,12,09,10.60
2011,02,04,12,10,10.60
2011,02,04,12,11,10.60
2011,02,04,12,12,10.60
2011,02,04,12,13,10.50
2011,02,04,12,14,10.50
2011,02,04,12,15,10.50
2011,02,04,12,16,10.50
2011,02,04,12,17,10.40
2011,02,04,12,18,10.40
2011,02,04,12,19,10.40
2011,02,04,12,20,10.40
2011,02,04,12,21,10.40
2011,02,04,12,22,10.40
2011,02,04,12,23,10.40
2011,02,04,12,24,10.40
2011,02,04,12,25,10.50
2011,02,04,12,26,10.50
2011,02,04,12,27,10.50
2011,02,04,12,28,10.50
2011,02,04,12,29,10.50
2011,02,04,12,30,10.50
2011,02,04,12,31,10.50
2011,02,04,12,32,10.50
2011,02,04,12,33,10.50
2011,02,04,12,34,10.50
2011,02,04,12,35,10.60
2011,02,04,12,36,10.60
2011,02,04,12,37,10.60
2011,02,04,12,38,10.60
2011,02,04,12,39,10.60
2011,02,04,12,40,10.60
2011,02,04,12,41,10.70
2011,02,04,12,42,10.70
2011,02,04,12,43,10.70
2011,02,04,12,44,10.70
2011,02,04,12,45,10.70
2011,02,04,12,46,10.70
2011,02,04,12,47,10.70
2011,02,04,12,48,10.70
2011,02,04,12,49,10.70
2011,02,04,12,50,10.70
2011,02,04,12,51,10.70
2011,02,04,12,52,10.70
2011,02,04,12,53,10.70
2011,02,04,12,54,10.70
2011,02,04,12,55,10.80
2011,02,04,12,56,10.80
2011,02,04,12,57,10.80
2011,02,04,12,58,10.80
2011,02,04,12,59,10.80
2011,02,04,13,00,10.80
2011,02,04,13,01,10.90
2011,02,04,13,02,10.90
2011,02,04,13,03,11.00
2011,02,04,13,04,11.00
2011,02,04,13,05,11.10
2011,02,04,13,06,11.10
2011,02,04,13,07,11.20
2011,02,04,13,08,11.20
2011,02,04,13,09,11.20
2011,02,04,13,10,11.20
2011,02,04,13,11,11.20
2011,02,04,13,12,11.20
2011,02,04,13,13,11.20
2011,02,04,13,14,11.20
2011,02,04,13,15,11.30
2011,02,04,13,16,11.30
2011,02,04,13,17,11.30
2011,02,04,13,18,11.30
2011,02,04,13,19,11.40
2011,02,04,13,20,11.40
2011,02,04,13,21,11.40
2011,02,04,13,22,11.40
2011,02,04,13,23,11.40
2011,02,04,13,24,11.40
2011,02,04,13,25,11.40
2011,02,04,13,26,11.40
2011,02,04,13,27,11.50
2011,02,04,13,28,11.50
2011,02,04,13,29,11.50
2011,02,04,13,30,11.60
2011,02,04,13,31,11.60
2011,02,04,13,32,11.70
2011,02,04,13,33,11.70
2011,02,04,13,34,11.80
2011,02,04,13,35,11.80
2011,02,04,13,36,11.90
2011,02,04,13,37,12.00
2011,02,04,13,38,12.00
2011,02,04,13,39,12.10
2011,02,04,13,40,12.20
2011,02,04,13,41,12.20
2011,02,04,13,42,12.30
2011,02,04,13,43,12.30
2011,02,04,13,44,12.30
2011,02,04,13,45,12.40
2011,02,04,13,46,12.50
2011,02,04,13,47,12.50
2011,02,04,13,48,12.60
2011,02,04,13,49,12.70
2011,02,04,13,50,12.80
2011,02,04,13,51,12.80
2011,02,04,13,52,12.90
2011,02,04,13,53,13.00
2011,02,04,13,54,13.00
2011,02,04,13,55,13.10
2011,02,04,13,56,13.20
2011,02,04,13,57,13.20
2011,02,04,13,58,13.20
2011,02,04,13,59,13.20
2011,02,04,14,00,13.20
2011,02,04,14,01,13.30
2011,02,04,14,02,13.30
2011,02,04,14,03,13.20
2011,02,04,14,04,13.20
2011,02,04,14,05,13.30
2011,02,04,14,06,13.20
2011,02,04,14,07,13.20
2011,02,04,14,08,13.30
2011,02,04,14,09,13.30
2011,02,04,14,10,13.30
2011,02,04,14,11,13.30
2011,02,04,14,12,13.30
2011,02,04,14,13,13.30
2011,02,04,14,14,13.30
2011,02,04,14,15,13.30
2011,02,04,14,16,13.30
2011,02,04,14,17,13.30
2011,02,04,14,18,13.30
2011,02,04,14,19,13.20
2011,02,04,14,20,13.20
2011,02,04,14,21,13.20
2011,02,04,14,22,13.20
2011,02,04,14,23,13.20
2011,02,04,14,24,13.20
2011,02,04,14,25,13.20
2011,02,04,14,26,13.20
2011,02,04,14,27,13.20
2011,02,04,14,28,13.10
2011,02,04,14,29,13.10
2011,02,04,14,30,13.10
2011,02,04,14,31,13.10
2011,02,04,14,32,13.10
2011,02,04,14,33,13.10
2011,02,04,14,34,13.10
2011,02,04,14,35,13.20
2011,02,04,14,36,13.20
2011,02,04,14,37,13.20
2011,02,04,14,38,13.20
2011,02,04,14,39,13.20
2011,02,04,14,40,13.20
2011,02,04,14,41,13.20
2011,02,04,14,42,13.30
2011,02,04,14,43,13.30
2011,02,04,14,44,13.30
2011,02,04,14,45,13.30
2011,02,04,14,46,13.30
2011,02,04,14,47,13.30
2011,02,04,14,48,13.30
2011,02,04,14,49,13.30
2011,02,04,14,50,13.30
2011,02,04,14,51,13.30
2011,02,04,14,52,13.30
2011,02,04,14,53,13.30
2011,02,04,14,54,13.30
2011,02,04,14,55,13.20
2011,02,04,14,56,13.20
2011,02,04,14,57,13.20
2011,02,04,14,58,13.20
2011,02,04,14,59,13.20
2011,02,04,15,00,13.20
2011,02,04,15,01,13.20
2011,02,04,15,02,13.20
2011,02,04,15,03,13.20
2011,02,04,15,04,13.30
2011,02,04,15,05,13.30
2011,02,04,15,06,13.30
2011,02,04,15,07,13.30
2011,02,04,15,08,13.40
2011,02,04,15,09,13.30
2011,02,04,15,10,13.40
2011,02,04,15,11,13.40
2011,02,04,15,12,13.40
2011,02,04,15,13,13.40
2011,02,04,15,14,13.40
2011,02,04,15,15,13.30
2011,02,04,15,16,13.30
2011,02,04,15,17,13.30
2011,02,04,15,18,13.30
2011,02,04,15,19,13.30
2011,02,04,15,20,13.20
2011,02,04,15,21,13.20
2011,02,04,15,22,13.20
2011,02,04,15,23,13.20
2011,02,04,15,24,13.20
2011,02,04,15,25,13.20
2011,02,04,15,26,13.20
2011,02,04,15,27,13.20
2011,02,04,15,28,13.20
2011,02,04,15,29,13.30
2011,02,04,15,30,13.30
2011,02,04,15,31,13.30
2011,02,04,15,32,13.30
2011,02,04,15,33,13.30
2011,02,04,15,34,13.30
2011,02,04,15,35,13.30
2011,02,04,15,36,13.30
2011,02,04,15,37,13.30
2011,02,04,15,38,13.30
2011,02,04,15,39,13.30
2011,02,04,15,40,13.20
2011,02,04,15,41,13.20
2011,02,04,15,42,13.20
2011,02,04,15,43,13.20
2011,02,04,15,44,13.20
2011,02,04,15,45,13.20
2011,02,04,15,46,13.20
2011,02,04,15,47,13.20
2011,02,04,15,48,13.20
2011,02,04,15,49,13.10
2011,02,04,15,50,13.20
2011,02,04,15,51,13.20
2011,02,04,15,52,13.20
2011,02,04,15,53,13.20
2011,02,04,15,54,13.20
2011,02,04,15,55,13.20
2011,02,04,15,56,13.20
2011,02,04,15,57,13.10
2011,02,04,15,58,13.10
2011,02,04,15,59,13.00
2011,02,04,16,00,13.00
2011,02,04,16,01,13.00
2011,02,04,16,02,12.90
2011,02,04,16,03,12.90
2011,02,04,16,04,12.80
2011,02,04,16,05,12.80
2011,02,04,16,06,12.80
2011,02,04,16,07,12.70
2011,02,04,16,08,12.70
2011,02,04,16,09,12.60
2011,02,04,16,10,12.60
2011,02,04,16,11,12.60
2011,02,04,16,12,12.50
2011,02,04,16,13,12.50
2011,02,04,16,14,12.40
2011,02,04,16,15,12.40
2011,02,04,16,16,12.30
2011,02,04,16,17,12.30
2011,02,04,16,18,12.30
2011,02,04,16,19,12.20
2011,02,04,16,20,12.20
2011,02,04,16,21,12.20
2011,02,04,16,22,12.20
2011,02,04,16,23,12.10
2011,02,04,16,24,12.10
2011,02,04,16,25,12.10
2011,02,04,16,26,12.10
2011,02,04,16,27,12.10
2011,02,04,16,28,12.10
2011,02,04,16,29,12.10
2011,02,04,16,30,12.10
2011,02,04,16,31,12.00
2011,02,04,16,32,12.00
2011,02,04,16,33,12.00
2011,02,04,16,34,11.90
2011,02,04,16,35,11.90
2011,02,04,16,36,11.90
2011,02,04,16,37,11.90
2011,02,04,16,38,11.90
2011,02,04,16,39,11.80
2011,02,04,16,40,11.80
2011,02,04,16,41,11.80
2011,02,04,16,42,11.80
2011,02,04,16,43,11.80
2011,02,04,16,44,11.70
2011,02,04,16,45,11.70
2011,02,04,16,46,11.70
2011,02,04,16,47,11.70
2011,02,04,16,48,11.60
2011,02,04,16,49,11.60
2011,02,04,16,50,11.60
2011,02,04,16,51,11.60
2011,02,04,16,52,11.60
2011,02,04,16,53,11.50
2011,02,04,16,54,11.50
2011,02,04,16,55,11.50
2011,02,04,16,56,11.50
2011,02,04,16,57,11.40
2011,02,04,16,58,11.40
2011,02,04,16,59,11.40
2011,02,04,17,00,11.40
2011,02,04,17,01,11.30
2011,02,04,17,02,11.30
2011,02,04,17,03,11.30
2011,02,04,17,04,11.30
2011,02,04,17,05,11.30
2011,02,04,17,06,11.20
2011,02,04,17,07,11.20
2011,02,04,17,08,11.20
2011,02,04,17,09,11.20
2011,02,04,17,10,11.10
2011,02,04,17,11,11.10
2011,02,04,17,12,11.10
2011,02,04,17,13,11.00
2011,02,04,17,14,11.00
2011,02,04,17,15,11.00
2011,02,04,17,16,10.90
2011,02,04,17,17,10.90
2011,02,04,17,18,10.90
2011,02,04,17,19,10.90
2011,02,04,17,20,10.90
2011,02,04,17,21,10.80
2011,02,04,17,22,10.80
2011,02,04,17,23,10.80
2011,02,04,17,24,10.80
2011,02,04,17,25,10.80
2011,02,04,17,26,10.80
2011,02,04,17,27,10.70
2011,02,04,17,28,10.70
2011,02,04,17,29,10.70
2011,02,04,17,30,10.70
2011,02,04,17,31,10.70
2011,02,04,17,32,10.60
2011,02,04,17,33,10.50
2011,02,04,17,34,10.50
2011,02,04,17,35,10.40
2011,02,04,17,36,10.30
2011,02,04,17,37,10.30
2011,02,04,17,38,10.30
2011,02,04,17,39,10.30
2011,02,04,17,40,10.20
2011,02,04,17,41,10.20
2011,02,04,17,42,10.20
2011,02,04,17,43,10.20
2011,02,04,17,44,10.20
2011,02,04,17,45,10.20
2011,02,04,17,46,10.20
2011,02,04,17,47,10.10
2011,02,04,17,48,10.10
2011,02,04,17,49,10.10
2011,02,04,17,50,10.10
2011,02,04,17,51,10.10
2011,02,04,17,52,10.00
2011,02,04,17,53,9.90
2011,02,04,17,54,9.80
2011,02,04,17,55,9.80
2011,02,04,17,56,9.70
2011,02,04,17,57,9.70
2011,02,04,17,58,9.60
2011,02,04,17,59,9.60
2011,02,04,18,00,9.50
2011,02,04,18,01,9.40
2011,02,04,18,02,9.30
2011,02,04,18,03,9.30
2011,02,04,18,04,9.20
2011,02,04,18,05,9.10
2011,02,04,18,06,9.00
2011,02,04,18,07,8.90
2011,02,04,18,08,8.80
2011,02,04,18,09,8.70
2011,02,04,18,10,8.60
2011,02,04,18,11,8.40
2011,02,04,18,12,8.30
2011,02,04,18,13,8.20
2011,02,04,18,14,8.10
2011,02,04,18,15,8.00
2011,02,04,18,16,8.00
2011,02,04,18,17,7.90
2011,02,04,18,18,7.90
2011,02,04,18,19,7.90
2011,02,04,18,20,7.90
2011,02,04,18,21,7.80
2011,02,04,18,22,7.80
2011,02,04,18,23,7.70
2011,02,04,18,24,7.70
2011,02,04,18,25,7.60
2011,02,04,18,26,7.60
2011,02,04,18,27,7.60
2011,02,04,18,28,7.60
2011,02,04,18,29,7.50
2011,02,04,18,30,7.50
2011,02,04,18,31,7.40
2011,02,04,18,32,7.40
2011,02,04,18,33,7.40
2011,02,04,18,34,7.30
2011,02,04,18,35,7.30
2011,02,04,18,36,7.30
2011,02,04,18,37,7.30
2011,02,04,18,38,7.20
2011,02,04,18,39,7.20
2011,02,04,18,40,7.20
2011,02,04,18,41,7.20
2011,02,04,18,42,7.20
2011,02,04,18,43,7.20
2011,02,04,18,44,7.20
2011,02,04,18,45,7.20
2011,02,04,18,46,7.20
2011,02,04,18,47,7.10
2011,02,04,18,48,7.10
2011,02,04,18,49,7.10
2011,02,04,18,50,7.10
2011,02,04,18,51,7.20
2011,02,04,18,52,7.10
2011,02,04,18,53,7.20
2011,02,04,18,54,7.20
2011,02,04,18,55,7.20
2011,02,04,18,56,7.30
2011,02,04,18,57,7.40
2011,02,04,18,58,7.50
2011,02,04,18,59,7.50
2011,02,04,19,00,7.50
2011,02,04,19,01,7.60
2011,02,04,19,02,7.60
2011,02,04,19,03,7.60
2011,02,04,19,04,7.60
2011,02,04,19,05,7.70
2011,02,04,19,06,7.70
2011,02,04,19,07,7.80
2011,02,04,19,08,7.80
2011,02,04,19,09,7.80
2011,02,04,19,10,7.80
2011,02,04,19,11,7.80
2011,02,04,19,12,7.80